Main page
METAR-TAF:

METAR-TAF

Airports :

Birjand International Airport

Birjand, Iran

latitude: 32-52N, longitude: 059-12E, elevation: 1491 m

Current weather observation

The report was made 41 minutes ago, at 06:00 UTC
Calm wind
Temperature 34°C
Humidity 6%
Pressure 1012 hPa
Visibility: 9000 m

METAR: OIMB 250600Z 00000KT 9000 NSC 34/M08 Q1011 A2988

Time: 11:11 (06:41 UTC)


TAF: missing

Weather observations and forecasts of more than 4000 airports (METAR and TAF reports).

The available stations are represented by yellow and red dots on the map.

Hover mouse over dot to see the name of the station.

Then click to see weather observations and forecasts.

To change the map : click on the green buttons with a black cross to zoom in, on the green button with a dash to zoom out, or on the green arrows for adjacent maps.


METAR-TAF: